Location: Maignaut
(43.8886°N, 0.4051°E)
Time: 02:40:17
(UTC+00:00)

CZ-4C R/B - Pass Details

Date: 17 January 2021
Orbit: 617 x 1385 km, 63.4° (Epoch: 04 March)

Event Time Altitude Azimuth Distance (km) Brightness Sun altitude
Rises 19:03:48 0° 272° (W) 3,173 6.6 -23.9°
Reaches altitude 10° 19:06:43 10° 291° (WNW) 2,367 5.4 -24.4°
Maximum altitude 19:10:35 19° 336° (NNW) 1,963 4.3 -25.1°
Enters shadow 19:13:44 14° 12° (NNE) 2,421 4.4 -25.6°
